Time,TemperatureF,DewpointF,PressureIn,WindDirection,WindDirectionDegrees,WindSpeedMPH,WindSpeedGustMPH,Humidity,HourlyPrecipIn,Conditions,Clouds,dailyrainin,SoftwareType,DateUTC
2015-07-31 00:34:00,69.0,42.0,30.22,ESE,107,3.0,4.0,38,-99.99,,,-99.99,,2015-07-31 06:34:00,
2015-07-31 00:44:00,68.0,43.0,30.23,ESE,118,3.0,4.0,40,-99.99,,,-99.99,,2015-07-31 06:44:00,
2015-07-31 00:54:00,68.0,44.0,30.23,SSE,163,2.0,2.0,42,-99.99,,,-99.99,,2015-07-31 06:54:00,
2015-07-31 01:03:00,67.0,44.0,30.23,SSE,153,1.0,2.0,43,-99.99,,,-99.99,,2015-07-31 07:03:00,
2015-07-31 01:12:00,66.0,42.0,30.22,SE,145,1.0,1.0,42,-99.99,,,-99.99,,2015-07-31 07:12:00,
2015-07-31 01:23:00,66.0,43.0,30.22,ESE,112,0.0,0.0,43,-99.99,,,-99.99,,2015-07-31 07:23:00,
2015-07-31 01:33:00,65.0,43.0,30.22,SSW,202,3.0,3.0,44,-99.99,,,-99.99,,2015-07-31 07:33:00,
2015-07-31 01:43:00,64.0,43.0,30.22,South,191,3.0,4.0,47,-99.99,,,-99.99,,2015-07-31 07:43:00,
2015-07-31 01:53:00,63.0,43.0,30.22,SSE,149,0.0,1.0,48,-99.99,,,-99.99,,2015-07-31 07:53:00,
2015-07-31 02:03:00,62.0,42.0,30.22,South,187,3.0,3.0,47,-99.99,,,-99.99,,2015-07-31 08:03:00,
2015-07-31 02:13:00,62.0,42.0,30.22,South,185,2.0,-999.0,48,-99.99,,,-99.99,,2015-07-31 08:13:00,
2015-07-31 02:23:00,62.0,42.0,30.23,South,187,3.0,4.0,48,-99.99,,,-99.99,,2015-07-31 08:23:00,
2015-07-31 02:33:00,62.0,42.0,30.23,South,173,3.0,3.0,47,-99.99,,,-99.99,,2015-07-31 08:33:00,
2015-07-31 02:43:00,61.0,42.0,30.22,SW,226,0.0,0.0,50,-99.99,,,-99.99,,2015-07-31 08:43:00,
2015-07-31 02:53:00,61.0,44.0,30.23,South,181,2.0,2.0,54,-99.99,,,-99.99,,2015-07-31 08:53:00,
2015-07-31 03:03:00,60.0,44.0,30.23,South,178,3.0,4.0,56,-99.99,,,-99.99,,2015-07-31 09:03:00,
2015-07-31 03:12:00,60.0,45.0,30.23,SSE,147,0.0,0.0,57,-99.99,,,-99.99,,2015-07-31 09:12:00,
2015-07-31 03:23:00,60.0,45.0,30.23,SSE,147,0.0,0.0,58,-99.99,,,-99.99,,2015-07-31 09:23:00,
2015-07-31 03:33:00,60.0,45.0,30.23,SSE,147,0.0,0.0,57,-99.99,,,-99.99,,2015-07-31 09:33:00,
2015-07-31 03:43:00,59.0,44.0,30.23,SSE,147,0.0,0.0,58,-99.99,,,-99.99,,2015-07-31 09:43:00,
2015-07-31 03:53:00,59.0,45.0,30.23,SSE,147,0.0,0.0,59,-99.99,,,-99.99,,2015-07-31 09:53:00,
2015-07-31 04:03:00,59.0,45.0,30.23,SSE,147,0.0,0.0,60,-99.99,,,-99.99,,2015-07-31 10:03:00,
2015-07-31 04:12:00,59.0,45.0,30.22,SSE,147,0.0,0.0,60,-99.99,,,-99.99,,2015-07-31 10:12:00,
2015-07-31 04:23:00,58.0,45.0,30.23,SSW,211,1.0,-999.0,62,-99.99,,,-99.99,,2015-07-31 10:23:00,
2015-07-31 04:33:00,58.0,46.0,30.23,WSW,241,2.0,3.0,65,-99.99,,,-99.99,,2015-07-31 10:33:00,
2015-07-31 04:44:00,57.0,46.0,30.22,West,270,4.0,5.0,67,-99.99,,,-99.99,,2015-07-31 10:44:00,
2015-07-31 04:53:00,57.0,47.0,30.23,West,261,5.0,6.0,68,-99.99,,,-99.99,,2015-07-31 10:53:00,
2015-07-31 05:03:00,56.0,45.0,30.23,West,272,4.0,5.0,67,-99.99,,,-99.99,,2015-07-31 11:03:00,
2015-07-31 05:13:00,57.0,45.0,30.23,West,279,4.0,6.0,65,-99.99,,,-99.99,,2015-07-31 11:13:00,
2015-07-31 05:23:00,58.0,45.0,30.23,West,270,5.0,6.0,63,-99.99,,,-99.99,,2015-07-31 11:23:00,
2015-07-31 05:35:00,57.0,45.0,30.23,WNW,285,5.0,8.0,64,-99.99,,,-99.99,,2015-07-31 11:35:00,
2015-07-31 05:44:00,57.0,45.0,30.23,WNW,285,5.0,8.0,64,-99.99,,,-99.99,,2015-07-31 11:44:00,
2015-07-31 05:53:00,57.0,45.0,30.23,WNW,286,4.0,6.0,64,-99.99,,,-99.99,,2015-07-31 11:53:00,
2015-07-31 06:03:00,56.0,45.0,30.23,WNW,292,6.0,7.0,66,-99.99,,,-99.99,,2015-07-31 12:03:00,
2015-07-31 06:13:00,56.0,46.0,30.23,WNW,282,5.0,5.0,68,-99.99,,,-99.99,,2015-07-31 12:13:00,
2015-07-31 06:23:00,56.0,45.0,30.24,West,268,3.0,5.0,67,-99.99,,,-99.99,,2015-07-31 12:23:00,
2015-07-31 06:34:00,55.0,45.0,30.24,WSW,254,5.0,5.0,68,-99.99,,,-99.99,,2015-07-31 12:34:00,
2015-07-31 06:43:00,55.0,45.0,30.24,WNW,282,3.0,4.0,69,-99.99,,,-99.99,,2015-07-31 12:43:00,
2015-07-31 06:53:00,56.0,46.0,30.25,WSW,256,4.0,4.0,69,-99.99,,,-99.99,,2015-07-31 12:53:00,
2015-07-31 07:03:00,56.0,46.0,30.25,West,265,5.0,6.0,69,-99.99,,,-99.99,,2015-07-31 13:03:00,
2015-07-31 07:13:00,56.0,46.0,30.25,West,276,3.0,4.0,69,-99.99,,,-99.99,,2015-07-31 13:13:00,
2015-07-31 07:23:00,56.0,45.0,30.24,WNW,294,5.0,7.0,67,-99.99,,,-99.99,,2015-07-31 13:23:00,
2015-07-31 07:33:00,57.0,45.0,30.25,West,277,5.0,7.0,65,-99.99,,,-99.99,,2015-07-31 13:33:00,
2015-07-31 07:43:00,58.0,46.0,30.25,West,273,5.0,6.0,64,-99.99,,,-99.99,,2015-07-31 13:43:00,
2015-07-31 08:03:00,59.0,46.0,30.26,West,277,4.0,5.0,61,-99.99,,,-99.99,,2015-07-31 14:03:00,
2015-07-31 08:13:00,60.0,45.0,30.25,West,268,6.0,-999.0,57,-99.99,,,-99.99,,2015-07-31 14:13:00,
2015-07-31 08:23:00,61.0,45.0,30.25,West,270,8.0,10.0,55,-99.99,,,-99.99,,2015-07-31 14:23:00,
2015-07-31 08:35:00,62.0,44.0,30.24,West,266,7.0,9.0,52,-99.99,,,-99.99,,2015-07-31 14:35:00,
2015-07-31 08:43:00,62.0,44.0,30.24,West,266,7.0,9.0,52,-99.99,,,-99.99,,2015-07-31 14:43:00,
2015-07-31 08:53:00,63.0,45.0,30.25,WNW,285,4.0,5.0,52,-99.99,,,-99.99,,2015-07-31 14:53:00,
2015-07-31 09:04:00,65.0,45.0,30.24,WNW,296,7.0,8.0,48,-99.99,,,-99.99,,2015-07-31 15:04:00,
2015-07-31 09:12:00,65.0,43.0,30.24,WNW,285,6.0,8.0,45,-99.99,,,-99.99,,2015-07-31 15:12:00,
2015-07-31 09:23:00,66.0,43.0,30.24,West,274,6.0,9.0,44,-99.99,,,-99.99,,2015-07-31 15:23:00,
2015-07-31 09:33:00,67.0,44.0,30.24,WNW,295,6.0,9.0,43,-99.99,,,-99.99,,2015-07-31 15:33:00,
2015-07-31 09:43:00,68.0,45.0,30.24,West,279,6.0,7.0,43,-99.99,,,-99.99,,2015-07-31 15:43:00,
2015-07-31 09:53:00,69.0,43.0,30.23,WNW,299,5.0,7.0,39,-99.99,,,-99.99,,2015-07-31 15:53:00,
2015-07-31 10:03:00,70.0,44.0,30.23,NW,305,6.0,7.0,39,-99.99,,,-99.99,,2015-07-31 16:03:00,
2015-07-31 10:13:00,71.0,44.0,30.23,WNW,302,6.0,8.0,38,-99.99,,,-99.99,,2015-07-31 16:13:00,
2015-07-31 10:23:00,71.0,43.0,30.22,West,259,5.0,6.0,36,-99.99,,,-99.99,,2015-07-31 16:23:00,
2015-07-31 10:34:00,72.0,42.0,30.22,West,273,5.0,7.0,34,-99.99,,,-99.99,,2015-07-31 16:34:00,
2015-07-31 10:56:00,75.0,42.0,30.21,West,274,5.0,7.0,31,-99.99,,,-99.99,,2015-07-31 16:56:00,
2015-07-31 11:03:00,75.0,42.0,30.21,West,274,5.0,7.0,31,-99.99,,,-99.99,,2015-07-31 17:03:00,
2015-07-31 11:13:00,76.0,42.0,30.21,NW,318,3.0,5.0,30,-99.99,,,-99.99,,2015-07-31 17:13:00,
2015-07-31 11:23:00,78.0,42.0,30.20,WNW,299,5.0,6.0,28,-99.99,,,-99.99,,2015-07-31 17:23:00,
2015-07-31 11:36:00,79.0,41.0,30.20,West,277,5.0,9.0,26,-99.99,,,-99.99,,2015-07-31 17:36:00,
2015-07-31 11:44:00,79.0,41.0,30.20,West,277,5.0,9.0,26,-99.99,,,-99.99,,2015-07-31 17:44:00,
2015-07-31 11:53:00,80.0,40.0,30.20,NW,312,3.0,5.0,24,-99.99,,,-99.99,,2015-07-31 17:53:00,
2015-07-31 12:03:00,80.0,40.0,30.19,WNW,292,5.0,6.0,24,-99.99,,,-99.99,,2015-07-31 18:03:00,
2015-07-31 12:13:00,81.0,43.0,30.19,SW,218,3.0,3.0,26,-99.99,,,-99.99,,2015-07-31 18:13:00,
2015-07-31 12:24:00,82.0,42.0,30.18,South,185,4.0,4.0,24,-99.99,,,-99.99,,2015-07-31 18:24:00,
2015-07-31 12:34:00,81.0,43.0,30.18,SW,217,3.0,5.0,26,-99.99,,,-99.99,,2015-07-31 18:34:00,
2015-07-31 12:44:00,82.0,42.0,30.18,WSW,253,3.0,4.0,24,-99.99,,,-99.99,,2015-07-31 18:44:00,
2015-07-31 12:53:00,83.0,42.0,30.17,South,191,3.0,5.0,24,-99.99,,,-99.99,,2015-07-31 18:53:00,
2015-07-31 13:04:00,84.0,40.0,30.16,SW,225,2.0,3.0,21,-99.99,,,-99.99,,2015-07-31 19:04:00,
2015-07-31 13:13:00,85.0,34.0,30.16,WNW,293,7.0,9.0,16,-99.99,,,-99.99,,2015-07-31 19:13:00,
2015-07-31 13:23:00,86.0,36.0,30.15,WSW,241,3.0,-999.0,17,-99.99,,,-99.99,,2015-07-31 19:23:00,
2015-07-31 13:33:00,86.0,35.0,30.15,WNW,296,4.0,5.0,16,-99.99,,,-99.99,,2015-07-31 19:33:00,
2015-07-31 13:46:00,87.0,34.0,30.14,WSW,242,6.0,8.0,15,-99.99,,,-99.99,,2015-07-31 19:46:00,
2015-07-31 13:54:00,87.0,34.0,30.14,WSW,242,6.0,8.0,15,-99.99,,,-99.99,,2015-07-31 19:54:00,
2015-07-31 14:04:00,88.0,31.0,30.14,West,263,5.0,6.0,13,-99.99,,,-99.99,,2015-07-31 20:04:00,
2015-07-31 14:13:00,89.0,32.0,30.13,NW,314,6.0,8.0,13,-99.99,,,-99.99,,2015-07-31 20:13:00,
2015-07-31 14:23:00,90.0,33.0,30.12,WSW,242,5.0,6.0,13,-99.99,,,-99.99,,2015-07-31 20:23:00,
2015-07-31 14:34:00,89.0,30.0,30.12,WNW,292,4.0,4.0,12,-99.99,,,-99.99,,2015-07-31 20:34:00,
2015-07-31 14:53:00,90.0,31.0,30.11,SSW,207,5.0,8.0,12,-99.99,,,-99.99,,2015-07-31 20:53:00,
2015-07-31 15:03:00,91.0,31.0,30.11,WSW,240,7.0,8.0,12,-99.99,,,-99.99,,2015-07-31 21:03:00,
2015-07-31 15:12:00,92.0,28.0,30.10,SW,231,7.0,10.0,10,-99.99,,,-99.99,,2015-07-31 21:12:00,
2015-07-31 15:23:00,92.0,28.0,30.10,SSW,199,6.0,-999.0,10,-99.99,,,-99.99,,2015-07-31 21:23:00,
2015-07-31 15:33:00,91.0,27.0,30.09,SSW,203,4.0,8.0,10,-99.99,,,-99.99,,2015-07-31 21:33:00,
2015-07-31 15:53:00,91.0,29.0,30.09,SSW,200,8.0,11.0,11,-99.99,,,-99.99,,2015-07-31 21:53:00,
2015-07-31 16:13:00,91.0,24.0,30.07,South,188,6.0,8.0,9,-99.99,,,-99.99,,2015-07-31 22:13:00,
2015-07-31 16:23:00,92.0,25.0,30.07,SW,234,6.0,9.0,9,-99.99,,,-99.99,,2015-07-31 22:23:00,